Radioactive Concentration measured by Seawater Radiation Monitor near Fukushima Daiichi Nuclear Power Station
Date,Time,Cs137(Bq/L),Cs134(Bq/L),Total β(Bq/L)
2020/04/16,00:00,-,-,30
2020/04/16,00:10,-,-,31
2020/04/16,00:20,-,-,31
2020/04/16,00:30,-,-,30
2020/04/16,00:40,-,-,26
2020/04/16,00:50,-,-,28
2020/04/16,01:00,-,-,30
2020/04/16,01:10,-,-,32
2020/04/16,01:20,-,-,35
2020/04/16,01:30,-,-,31
2020/04/16,01:40,-,-,33
2020/04/16,01:50,-,-,32
2020/04/16,02:00,-,-,30
2020/04/16,02:10,-,-,30
2020/04/16,02:20,-,-,29
2020/04/16,02:30,-,-,32
2020/04/16,02:40,-,-,30
2020/04/16,02:50,-,-,29
2020/04/16,03:00,-,-,30
2020/04/16,03:10,-,-,26
2020/04/16,03:20,-,-,25
2020/04/16,03:30,-,-,28
2020/04/16,03:40,-,-,31
2020/04/16,03:50,-,-,33
2020/04/16,04:00,-,-,34
2020/04/16,04:10,-,-,36
2020/04/16,04:20,-,-,37
2020/04/16,04:30,-,-,33
2020/04/16,04:40,-,-,31
2020/04/16,04:50,-,-,28
2020/04/16,05:00,-,-,28
2020/04/16,05:10,-,-,29
2020/04/16,05:20,-,-,27
2020/04/16,05:30,-,-,26
2020/04/16,05:40,-,-,28
2020/04/16,05:50,-,-,28
2020/04/16,06:00,-,-,28
2020/04/16,06:10,-,-,24
2020/04/16,06:20,-,-,27
2020/04/16,06:30,-,-,27
2020/04/16,06:40,-,-,27
2020/04/16,06:50,-,-,27
2020/04/16,07:00,-,-,28
2020/04/16,07:10,-,-,30
2020/04/16,07:20,-,-,28
2020/04/16,07:30,-,-,27
2020/04/16,07:40,-,-,26
2020/04/16,07:50,-,-,26
2020/04/16,08:00,-,-,26
2020/04/16,08:10,-,-,24
2020/04/16,08:20,-,-,22
2020/04/16,08:30,-,-,25
2020/04/16,08:40,-,-,25
2020/04/16,08:50,-,-,24
2020/04/16,09:00,-,-,22
2020/04/16,09:10,-,-,23
2020/04/16,09:20,-,-,25
2020/04/16,09:30,-,-,22
2020/04/16,09:40,-,-,20
2020/04/16,09:50,-,-,22
2020/04/16,10:00,-,-,25
2020/04/16,10:10,-,-,25
2020/04/16,10:20,-,-,24
2020/04/16,10:30,-,-,25
2020/04/16,10:40,-,-,26
2020/04/16,10:50,-,-,23
2020/04/16,11:00,-,-,19
2020/04/16,11:10,-,-,21
2020/04/16,11:20,-,-,19
2020/04/16,11:30,-,-,20
2020/04/16,11:40,-,-,21
2020/04/16,11:50,-,-,24
2020/04/16,12:00,-,-,28
2020/04/16,12:10,-,-,25
2020/04/16,12:20,-,-,26
2020/04/16,12:30,-,-,28
2020/04/16,12:40,-,-,29
2020/04/16,12:50,-,-,30
2020/04/16,13:00,-,-,27
2020/04/16,13:10,-,-,25
2020/04/16,13:20,-,-,27
2020/04/16,13:30,-,-,22
2020/04/16,13:40,-,-,22
2020/04/16,13:50,-,-,24
2020/04/16,14:00,-,-,28
2020/04/16,14:10,-,-,31
2020/04/16,14:20,-,-,33
2020/04/16,14:30,-,-,35
2020/04/16,14:40,-,-,34
2020/04/16,14:50,-,-,30
2020/04/16,15:00,-,-,28
2020/04/16,15:10,-,-,29
2020/04/16,15:20,-,-,27
2020/04/16,15:30,-,-,26
2020/04/16,15:40,-,-,27
2020/04/16,15:50,-,-,26
2020/04/16,16:00,-,-,27
2020/04/16,16:10,-,-,27
2020/04/16,16:20,-,-,27
2020/04/16,16:30,-,-,28
2020/04/16,16:40,-,-,27
2020/04/16,16:50,-,-,28
2020/04/16,17:00,-,-,29
2020/04/16,17:10,-,-,29
2020/04/16,17:20,-,-,29
2020/04/16,17:30,-,-,28
2020/04/16,17:40,-,-,30
2020/04/16,17:50,-,-,30
2020/04/16,18:00,-,-,29
2020/04/16,18:10,-,-,27
2020/04/16,18:20,-,-,27
2020/04/16,18:30,-,-,26
2020/04/16,18:40,-,-,22
2020/04/16,18:50,-,-,23
2020/04/16,19:00,-,-,23
2020/04/16,19:10,-,-,26
2020/04/16,19:20,-,-,23
2020/04/16,19:30,-,-,24
2020/04/16,19:40,-,-,26
2020/04/16,19:50,-,-,24
2020/04/16,20:00,-,-,25
2020/04/16,20:10,-,-,23
2020/04/16,20:20,-,-,26
2020/04/16,20:30,-,-,25
2020/04/16,20:40,-,-,28
2020/04/16,20:50,-,-,27
2020/04/16,21:00,-,-,26
2020/04/16,21:10,-,-,25
2020/04/16,21:20,-,-,24
2020/04/16,21:30,-,-,25
2020/04/16,21:40,-,-,20
2020/04/16,21:50,-,-,22
2020/04/16,22:00,-,-,23
2020/04/16,22:10,-,-,22
2020/04/16,22:20,-,-,20
2020/04/16,22:30,-,-,20
2020/04/16,22:40,-,-,24
2020/04/16,22:50,-,-,26
2020/04/16,23:00,-,-,26
2020/04/16,23:10,-,-,-
2020/04/16,23:20,-,-,-
2020/04/16,23:30,-,-,-
2020/04/16,23:40,-,-,-
2020/04/16,23:50,-,-,-
